Regional Weather Roundup
Issued by NWS

Home | Current Version | Previous Version | Graphics & Text | Print | Product List | Glossary On
Versions: 1 2 3 4 5 6 7 8 9 10 11 12 13 14 15 16 17 18 19 20 21 22 23 24 25 26 27
000
ASUS45 KTFX 241710
RWRMT
MONTANA REGIONAL WEATHER ROUNDUP
NATIONAL WEATHER SERVICE GREAT FALLS MT
1100 AM MDT WED MAY 24 2017

NOTE: "FAIR" INDICATES FEW OR NO CLOUDS BELOW 12000 FEET WITH NO
SIGNIFICANT WEATHER AND/OR OBSTRUCTIONS TO VISIBILITY.

MTZ001>007-043-241800-
WEST OF THE DIVIDE

CITY           SKY/WX    TMP DP  RH WIND       PRES   REMARKS
KALISPELL        N/A     57  20  23 W22G35    29.55R
MISSOULA         N/A     59  24  26 W22G29    29.67S
BUTTE            N/A     60  15  17 W18G31    29.62S
MULLAN PASS      N/A     37  17  44 W8G25     29.71R WCI  31
ANACONDA         N/A     57  19  23 W24G38    29.62S
DEER LODGE       N/A     57  27  30 SW9       29.64S
EUREKA           N/A     54  16  22 W15G21    29.53S
HAMILTON         N/A     57  21  24 SW7G26    29.70S
RONAN            N/A     58  19  22 SW21      29.70S
$$

MTZ008-052>055-241800-
SOUTHWEST MONTANA

CITY           SKY/WX    TMP DP  RH WIND       PRES   REMARKS
BOZEMAN          N/A     72  41  32 NW24G33   29.46R
DILLON           N/A     68  37  32 W28G36    29.54F
W YELLOWSTONE    N/A     63  37  39 SW36G45   29.65F
ENNIS          PTSUNNY   68  39  34 S22       29.56F
THREE FORKS      N/A     71  33  24 W24       29.52F
$$

MTZ009-010-012-014-046-048-049-054-241800-
EAST SLOPES AND CENTRAL MONTANA

CITY           SKY/WX    TMP DP  RH WIND       PRES   REMARKS
CUT BANK         N/A     58  19  22 SW41G55   29.37S
GREAT FALLS      N/A     64  21  19 W36G47    29.44F
MALMSTROM AFB    N/A     64  24  22 W31G45    29.45S
HELENA           N/A     66  28  24 W22G35    29.55R
CHOTEAU          N/A     61  14  16 W23G30    29.46S
CONRAD           N/A     62  27  26 SW37      29.49S
$$

MTZ011-013-016-021-045-047-050-051-241800-
NORTH CENTRAL MONTANA

CITY           SKY/WX    TMP DP  RH WIND       PRES   REMARKS
HAVRE            N/A     72  18  13 W40G55    29.30R
LEWISTOWN        N/A     66  35  31 NW24G39   29.41R
N BAR RANCH    PTSUNNY   70  41  35 NW29G35   29.42S
CHINOOK          N/A     73  25  16 SW31G46   29.26S
FORT BENTON      N/A    N/A N/A N/A CALM      29.40F
$$

MTZ017>020-022>027-061-062-241800-
NORTHEAST MONTANA

CITY           SKY/WX    TMP DP  RH WIND       PRES   REMARKS
GLASGOW          N/A     77  42  28 SE14      29.26F
JORDAN           N/A     82  40  22 SW22      29.28
SIDNEY           N/A     70  38  31 S28G40    29.41F
WOLF POINT       N/A     76  41  28 S13G23    29.31F
MALTA          SUNNY     79  28  15 W31G48    29.23S
PLENTYWOOD       N/A     66  36  32 SE29G38   29.37F
$$

MTZ028>42-056>058-241800-
SOUTHCENTRAL AND SOUTHEAST MONTANA

CITY           SKY/WX    TMP DP  RH WIND       PRES   REMARKS
BAKER            N/A     66  39  37 SE28G38   29.49F
BILLINGS         N/A     79  38  22 SW22G35   29.38F
LIVINGSTON     PTSUNNY   72  42  34 SW25G37   29.40F
MILES CITY       N/A     73  43  33 SE16      29.38F
BIG TIMBER     SUNNY     75  41  29 W21G35    29.42
FORSYTH          N/A     79  45  29 CALM      29.35F
LAUREL           N/A     77  43  29 S15       29.44R
ROUNDUP          N/A     78  41  26 S14       29.35F
$$

REGIONAL REPORTS...DAKOTAS

CITY           SKY/WX    TMP DP  RH WIND       PRES   REMARKS
WILLISTON        N/A     68  37  32 S24G33    29.45F
MINOT            N/A     65  33  30 SE22G33   29.58F
DICKINSON        N/A     62  31  31 S31G37    29.53F
BEACH            N/A     66  34  30 S29G40    29.50F
TIOGA          PTSUNNY   63  34  34 S33G44    29.50F
WATFORD CITY     N/A     64  36  34 SE26G38   29.46F
BISMARCK         N/A     63  40  42 SE22      29.68F
GRAND FORKS      N/A     64  41  42 S16G25    29.74F
FARGO          PTSUNNY   62  43  49 SE8G20    29.75F
BUFFALO SD       N/A     65  39  38 S31G38    29.48F
RAPID CITY       N/A     63  41  44 S21G30    29.61F
$$

REGIONAL REPORTS...WYOMING/IDAHO/WASHINGTON

CITY           SKY/WX    TMP DP  RH WIND       PRES   REMARKS
GILLETTE         N/A     69  50  50 S16       29.54F
SHERIDAN         N/A     75  57  53 NE7       29.47F
BUFFALO WY       N/A     75  49  39 SE10      29.55F
CODY             N/A     75  38  26 VRB7      29.55F
YELLOWSTONE LA   N/A     59  35  40 W8G22     29.75F
IDAHO FALLS      N/A     72  45  37 S32G40    29.66F
SALMON         PTSUNNY   70  36  28 N10       29.56S
BOISE            N/A     67  32  27 NW22G28   29.78F
SPOKANE          N/A     56  24  29 W17G25    29.78S
$$

REGIONAL REPORTS...ALBERTA

CITY           SKY/WX    TMP DP  RH WIND       PRES   REMARKS
EDMONTON       LGT RAIN  52  48  87 N25G32    29.10R FOG
CALGARY        PTSUNNY   52  34  50 NW5       29.22F
LETHBRIDGE     PTSUNNY   55  23  28 W32G47    29.29R
MEDICINE HAT   PTSUNNY   63  41  45 W28G37    29.19R
WATERTON GATE    N/A     52  18  25 SW36G56     N/A
CARDSTON         N/A     54  14  20 W26G41      N/A
MILK RIVER       N/A     61  16  17 W35G46      N/A
$$

REGIONAL REPORTS...SASKATCHEWAN

CITY           SKY/WX    TMP DP  RH WIND       PRES   REMARKS
REGINA         MOSUNNY   70  37  30 S38G51    29.26F BLWGDUST
SASKATOON      MOSUNNY   70  43  37 S21G29    29.10F
VAL MARIE        N/A     77  27  15 W32G40      N/A
ROCKGLEN         N/A     70  41  35 S20G26      N/A
$$




USA.gov is the U.S. government's official web portal to all federal, state and local government web resources and services.